Tracking 20093 objects as of 16-Dec-2019
HD Live streaming from Space Station
objects crossing your sky now

STARLINK-48

Track STARLINK-48 now!
10-day predictions
STARLINK-48 is classified as:


NORAD ID: 44289
Int'l Code: 2019-029BG
Perigee: 513.0 km
Apogee: 515.8 km
Inclination: 53.0 °
Period: 94.8 minutes
Semi major axis: 6885 km
RCS: Unknown
Launch date: May 24, 2019
Source: United States (US)
Launch site: AIR FORCE EASTERN TEST RANGE (AFETR)
aabbcc
Your satellite tracking list
Your tracking list is empty




NASA's NSSDC Master Catalog

Two Line Element Set (TLE):
1 44289U 19029BG  19349.58334491  .00008098  00000-0  39092-3 0  9992
2 44289  53.0036 311.5808 0002005  39.1923 308.4204 15.19528223 32415
Source of the keplerian elements: AFSPC